Regional Weather Roundup
Issued by NWS

Home | Current Version | Previous Version | Graphics & Text | Print | Product List | Glossary On
Versions: 1 2 3 4 5 6 7 8 9 10 11 12 13 14 15 16 17 18 19 20 21 22 23 24 25 26 27 28 29 30 31 32 33 34 35 36 37 38 39 40 41 42 43 44 45 46 47 48 49 50
000
ASUS43 KIND 240309
RWRIN

WEATHER ROUNDUP FOR INDIANA
NATIONAL WEATHER SERVICE INDIANAPOLIS IN
1100 PM EDT SAT MAY 23 2015

NOTE: "FAIR" INDICATES FEW OR NO CLOUDS BELOW 12,000 FEET WITH NO
SIGNIFICANT WEATHER AND/OR OBSTRUCTIONS TO VISIBILITY.

* - STATION DOES NOT REPORT WEATHER SUCH AS PRECIPITATION OR FOG.

+ - STATION NOT QUALITY CONTROLLED BY THE NATIONAL WEATHER SERVICE.
    USE DATA WITH CAUTION...ESPECIALLY DEWPOINT AND RELATIVE
    HUMIDITY OBSERVATIONS.

INZ001>003-010>013-019-020-240400-
NORTHWEST INDIANA

CITY           SKY/WX    TMP DP  RH WIND       PRES   REMARKS
GARY /AIRPORT/ CLEAR     70  45  40 S8        30.21
KNOX *+        CLEAR     61  45  55 S5        30.23R
LA PORTE +     CLEAR     64  47  53 CALM      30.23S
MICHIGAN CITY+ CLEAR     59  46  63 CALM      30.23R
MONTICELLO +   PTCLDY    65  49  56 S3        30.23R
RENSSELAER +   PTCLDY    64  45  48 CALM      30.23R
VALPARAISO     CLEAR     68  44  42 S6        30.23R

$$

LMZ046-743>745-240400-
SOUTHERN LAKE MICHIGAN

STATION/POSITION TIME  TEMP    WIND        PRES    WAVE
                       AIR SEA DIR/SP/G            HT
                 (UTC) (F)     (DEG/KT/KT) (MB)    (FT)
BURNS HARBOR     0300   71     180/  7/ 10 1023.4S
MICHIGAN CITY    0300   70     120/  7/  8   N/A
5NW MICH CITY    0300   62 53  140/  4/  6   N/A     1

$$

INZ004-005-014>016-021>024-240400-
NORTH CENTRAL INDIANA

CITY           SKY/WX    TMP DP  RH WIND       PRES   REMARKS
GOSHEN         CLEAR     63  48  58 SE6       30.24R
LOGANSPORT +   PTCLDY    63  39  42 S5        30.26R
PERU/GRISSOM   PTCLDY    64  45  49 S5        30.24R
ROCHESTER +    CLEAR     68  48  49 CALM      30.25R
SOUTH BEND     CLEAR     66  46  48 CALM      30.24R
WARSAW +       CLEAR     59  50  72 CALM      30.25R

$$

INZ006>009-017-018-025>027-240400-
NORTHEAST INDIANA

CITY           SKY/WX    TMP DP  RH WIND       PRES   REMARKS
ANGOLA *+      CLEAR     57  52  82 CALM      30.26S
AUBURN +       CLEAR     61  48  63 CALM      30.27R
FORT WAYNE     PTCLDY    64  49  57 SE3       30.27R
HUNTINGTON +   CLEAR     59  48  65 CALM      30.26R

$$

INZ028-029-035-036-043>045-051>053-240400-
WEST CENTRAL INDIANA

CITY           SKY/WX    TMP DP  RH WIND       PRES   REMARKS
CRAWFORDSVL +  MOCLDY    61  42  49 SE5       30.25S
GREENCASTLE +  MOCLDY    63  43  48 CALM      30.26R
LAFAYETTE      MOCLDY    61  49  64 CALM      30.23R
TERRE HAUTE    CLOUDY    65  52  62 E5        30.24R

$$

INZ030>032-037>040-046>048-054>057-064-065-240400-
CENTRAL INDIANA

CITY           SKY/WX    TMP DP  RH WIND       PRES   REMARKS
CP ATTERBURY + PTCLDY    57  52  82 CALM      30.27R
FISHERS *+     MOCLDY    59  50  72 CALM      30.27
FRANKFORT +    MOCLDY    62  45  53 SE3       30.27R
GREENWOOD *+   PTCLDY    64  45  48 CALM      30.27R
INDIANAPOLIS   MOCLDY    68  44  42 SE6       30.24R
-EAGLE CREEK   MOCLDY    66  50  56 CALM      30.25R
KOKOMO *+      PTCLDY    63  46  55 S6        30.26R
MARION +       PTCLDY    61  45  56 SE3       30.27R
MT COMFORT *+  MOCLDY    64  34  32 SE3       30.27S
SHELBYVILLE    PTCLDY    67  46  47 SE6       30.26R
ZIONSVILLE +   MOCLDY    63  42  45 CALM      30.27R

$$

INZ033-034-041-042-049-050-058-059-240400-
EAST CENTRAL INDIANA

CITY           SKY/WX    TMP DP  RH WIND       PRES   REMARKS
MUNCIE         PTCLDY    66  46  48 S3        30.27R

$$

INZ060-061-067>069-081>083-085>088-240400-
SOUTHWEST INDIANA

CITY           SKY/WX    TMP DP  RH WIND       PRES   REMARKS
EVANSVILLE     CLOUDY    68  52  56 CALM      30.22S
HUNTINGBURG *+ PTCLDY    66  48  52 SE5       30.24S
WASHINGTON +   MOCLDY    62  51  66 CALM      30.23S

$$

INZ062-063-066-070>080-084-089>092-240400-
SOUTH CENTRAL AND SOUTHEAST INDIANA

CITY           SKY/WX    TMP DP  RH WIND       PRES   REMARKS
BLOOMINGTON    MOCLDY    61  51  70 CALM      30.25R
MADISON *+     PTCLDY    61  46  59 CALM      30.29R
NORTH VERNON + PTCLDY    63  50  63 CALM      30.28R
SEYMOUR +      PTCLDY    64  48  55 E6        30.26R

$$




USA.gov is the U.S. government's official web portal to all federal, state and local government web resources and services.